Locharbriggs, United Kingdom
Current Conditions -  °F | °C
As of 1:20 PM on Friday 24 Oct 2014 (Local Time) from EGNC Reporting Station
Rain Showers Rain Showers  
Wind Chill: 52°   Ceiling: 3200
Heat Index: 52°   Visibility: 6mi
Dew Point: 45°   Wind: 16mph
Humidity: 76%   Direction: 240°WSW
Pressure: 29.8"   Gusts: NA
Location:  55.1°N, 3.58°W
Report Text: EGNC 241220Z 24014KT 210V280 9999 7000SE VCSH SCT022 BKN032 11/07 Q1009
Loading
Personal Weather Stations






























Interactive Weather Map
Tropical Storm Tracking
New forecast layout! Learn more

10-Day Weather Forecast

Advertisements
Track Severe Weather on mobile